Regional Weather Roundup
Issued by NWS

Home | Current Version | Previous Version | Graphics & Text | Print | Product List | Glossary Off
Versions: 1 2 3 4 5 6 7 8 9 10 11 12 13 14 15 16 17 18 19 20 21 22 23 24 25 26 27 28 29 30 31 32 33 34 35 36 37 38 39 40 41 42 43 44 45 46 47 48 49 50

000
ASUS43 KFSD 211710
RWRSD

WEATHER ROUNDUP FOR SOUTH DAKOTA
NATIONAL WEATHER SERVICE SIOUX FALLS SD
1200 PM CDT TUE OCT 21 2014

NOTE: "FAIR" INDICATES FEW OR NO CLOUDS BELOW 12,000 FEET WITH NO
SIGNIFICANT WEATHER AND/OR OBSTRUCTIONS TO VISIBILITY.


SDZ001>005-009-010-012>017-211800-
NORTHWEST AND NORTH CENTRAL SOUTH DAKOTA

CITY           SKY/WX    TMP DP  RH WIND       PRES   REMARKS
BUFFALO          N/A     75  42  30 S12G24    29.67F
FAITH            N/A     66  46  48 S20       29.77F
MOBRIDGE       SUNNY     69  45  41 S18       29.79F
$$

SDZ012>016-024>037-041>051-057-063-072>074-211800-
SOUTHWEST AND SOUTH CENTRAL SOUTH DAKOTA

CITY           SKY/WX    TMP DP  RH WIND       PRES   REMARKS
RAPID CTY ARPT SUNNY     72  45  37 SE9       29.81F
PIERRE         SUNNY     73  45  36 S13       29.85S
CUSTER         SUNNY     67  38  34 SW14G21   29.94F
ELLSWORTH AFB  MOSUNNY   72  46  39 S12       29.81F
PHILIP         SUNNY     74  47  38 SW14      29.82F
PINE RIDGE     SUNNY     67  47  48 S12       29.89F
SPEARFISH      FAIR      73  41  31 SW13G20   29.82F
WINNER         FAIR      76  43  30 S26G36    29.91F
$$

SDZ004>011-016>023-039-040-211800-
NORTHEAST SOUTH DAKOTA

CITY           SKY/WX    TMP DP  RH WIND       PRES   REMARKS
ABERDEEN       SUNNY     69  42  37 S21G26    29.90F
WATERTOWN      SUNNY     66  39  37 S20       29.98F
SISSETON         N/A     58  42  55 S15G24    29.98F
$$

SDZ017-020-022-023-036>040-048>070-211800-
SOUTHEAST SOUTH DAKOTA

CITY           SKY/WX    TMP DP  RH WIND       PRES   REMARKS
SIOUX FALLS    SUNNY     66  42  41 S16G22    30.05F
HURON          SUNNY     67  41  38 S16G23    29.95F
CHAMBERLAIN    SUNNY     73  46  38 S18G25    29.92F
MITCHELL       SUNNY     66  44  45 S14       29.98F
YANKTON        SUNNY     68  46  45 SE15      30.03F
$$

ABBREVIATIONS USED IN REMARKS
   TC - TEMPERATURE IN CELSIUS
  WCI - WIND CHILL INDEX
   HX - HEAT INDEX
  VSB - VISIBILITY




USA.gov is the U.S. government's official web portal to all federal, state and local government web resources and services.